Location: Wilsall
(45.9940°N, 110.6590°W)
Time: 04:14:26
(UTC-06:00)

Daily predictions for brighter satellites

Satellite Brightness Start Highest point End
(mag) Time Altitude Azimuth Time Altitude Azimuth Time Altitude Azimuth
SL-16 R/B 4.1 02:52:16 31° NE 02:52:16 31° NE 02:56:50 10° N
Cosmos 2237 Rocket 4.3 02:55:47 10° N 03:00:06 22° NE 03:01:08 21° ENE
ATLAS 5 CENTAUR R/B 4.3 03:03:59 23° ENE 03:03:59 23° ENE 03:06:48 10° E
ATLAS 2AS CENTAUR R/B 3.4 03:25:24 58° N 03:25:24 58° N 03:32:12 10° NE
CZ-2D R/B 3.9 03:24:34 10° NNE 03:27:41 27° ENE 03:27:41 27° ENE
Cosmos 2227 Rocket 4.2 03:35:40 20° ESE 03:35:49 20° E 03:39:51 10° NE
Cosmos 2219 Rocket 4.4 03:31:59 10° NNW 03:33:13 17° NNW 03:33:13 17° NNW
Cosmos 2297 Rocket 4.4 03:43:50 16° ESE 03:45:06 17° E 03:48:39 10° ENE
NOSS 3-2 (A) 4.0 03:42:32 10° NW 03:49:56 74° NE 03:57:58 10° SE
Resurs 1-4 Rocket 3.3 03:46:27 10° NNE 03:50:15 40° NE 03:50:15 40° NE
Lacrosse 5 3.4 04:06:15 29° E 04:06:15 29° E 04:09:36 10° ENE
Cosmos 2344 3.6 04:07:13 65° S 04:08:17 73° ESE 04:17:07 10° NE
CENTAUR R/B 4.1 04:15:34 10° NNW 04:22:43 42° NE 04:30:24 10° ESE
Cosmos 2333 Rocket 4.0 04:16:59 10° NNW 04:30:25 - SSE 04:18:45 21° NNW
Lacrosse 5 rocket 3.0 04:25:09 33° NNE 04:25:09 33° NNE 04:28:01 10° NE
NOSS 3-2 (C) 3.8 04:21:10 10° NW 04:28:38 86° SW 04:36:43 10° SE
Cosmos 1777 Rocket 4.2 04:30:25 70° NE 04:30:25 70° NE 04:35:06 10° NNE
SL-16 R/B 3.5 04:37:22 32° NW 04:37:22 32° NW 04:40:53 10° NNW
ARIANE 5 R/B 3.3 04:31:41 10° N 04:35:11 40° NNW 04:35:11 40° NNW
Cosmos 1934 Rocket 4.1 04:33:39 10° NNW 04:38:59 57° WNW 04:38:59 57° WNW
BREEZE-M DEB (TANK) 4.2 04:41:06 50° NNE 04:41:06 50° NNE 04:47:25 10° E
Cosmos 1025 Rocket 4.0 04:42:12 40° ESE 04:42:53 44° E 04:47:00 10° NNE
CZ-4B R/B 4.3 04:39:40 10° NNE 04:44:48 42° E 04:49:08 14° SSE
Cosmos 2237 Rocket 3.0 04:39:10 10° NNW 04:48:08 26° SSE 04:50:25 10° SSE
Cosmos 1605 Rocket 3.8 04:38:49 10° N 04:44:59 80° W 04:46:45 49° S
ATLAS 5 CENTAUR R/B 2.2 04:45:46 65° W 04:46:29 72° SW 04:52:55 10° SSE
ADEOS II 4.3 04:42:38 10° NE 04:46:46 23° E 04:50:53 10° SE
Cosmos 2112 Rocket 3.9 04:43:16 10° NNW 04:48:37 87° ENE 04:53:53 10° SSE
ARGOS Delta rocket 4.3 04:47:47 10° N 04:51:45 50° NW 04:51:45 50° NW
Cosmos 1680 Rocket 3.4 04:47:36 10° NNW 04:57:32 13° SSE 04:58:08 10° SSE
NOSS 3-4 (A) 3.5 04:52:51 53° SSW 04:54:31 86° SE 05:01:08 10° NE
NOSS 3-4 (C) 3.5 04:52:56 53° SSW 04:54:37 85° SE 05:01:15 10° NE
Cosmos 1606 Rocket 3.8 04:54:10 10° N 04:58:32 65° E 05:02:19 13° SSE
Okean O Rocket 1.8 04:54:23 10° NNE 04:58:47 66° E 04:59:43 51° SSE
Cosmos 2219 4.2 05:03:30 30° NW 05:03:30 30° NW 05:08:17 10° N
SL-16 R/B 2.4 04:59:34 10° NNW 05:05:17 74° ENE 05:10:57 10° SSE
UNKNOWN OBJECT B 4.2 05:04:52 10° N 05:07:04 28° NNW 05:07:04 28° NNW
Meteor 2-9 Rocket 4.5 05:03:02 10° N 05:08:41 71° ENE 05:14:27 10° SSE
Cosmos 1726 Rocket 3.7 05:04:45 10° N 05:09:10 71° E 05:13:30 10° SSE
CZ-2D R/B 2.7 05:04:34 10° N 05:09:00 37° WNW 05:09:00 37° WNW
Cosmos 220 Rocket 3.7 05:14:58 71° WSW 05:15:16 77° WNW 05:19:31 10° NNE
ATLAS 2AS CENTAUR R/B 4.3 05:12:50 20° WNW 05:16:41 28° NNW 05:23:30 10° NE
Meteor 1-13 Rocket 4.2 05:15:33 40° SW 05:17:33 62° WNW 05:23:14 10° N
Cosmos 2227 Rocket 2.2 05:17:32 43° SW 05:19:18 66° WNW 05:24:58 10° NNE
Aureole 2 Rocket 3.2 05:17:10 10° NNW 05:20:39 50° ENE 05:23:47 10° SE
RESURS DK-1 2.2 05:21:25 62° SW 05:22:02 78° WNW 05:26:12 10° NNE
Cosmos 1346 Rocket 2.8 05:21:06 35° S 05:22:40 79° E 05:26:42 10° NNE
Cosmos 2061 Rocket 4.1 05:17:37 10° N 05:23:59 83° E 05:30:22 10° S
Cosmos 2100 Rocket 3.9 05:17:45 10° N 05:24:01 89° W 05:30:20 10° S
Cosmos 1892 Rocket 3.7 05:20:44 18° S 05:24:01 76° E 05:28:31 10° NNE
CZ-2D R/B 4.3 05:21:35 10° N 05:24:28 32° NW 05:24:28 32° NW
Tiangong 1 2.1 05:25:49 37° SE 05:25:49 37° SE 05:28:09 10° E
Cosmos 1802 Rocket 4.1 05:19:20 10° N 05:25:33 76° E 05:31:40 10° SSE
Okean 1-7 Rocket 4.3 05:26:15 35° WNW 05:26:15 35° WNW 05:29:51 10° N
PSLV R/B 4.3 05:22:36 10° NNE 05:26:52 53° E 05:31:03 10° S
Cosmos 2297 Rocket 2.1 05:25:41 32° SW 05:28:26 76° WNW 05:34:08 10° NNE
IRS-1C Rocket 4.0 05:23:13 10° N 05:28:30 69° WNW 05:31:31 26° SSW
Thor Agena Rocket 3.5 05:24:57 10° SSE 05:30:16 86° WSW 05:35:36 10° NNW
Resurs 1-4 Rocket 3.2 05:26:54 10° N 05:31:11 25° WNW 05:31:19 25° WNW
CZ-2C R/B 3.9 05:29:58 27° SSW 05:32:08 47° W 05:36:38 10° NNW
Cosmos 2150 Rocket 4.4 05:28:00 10° S 05:33:04 61° ESE 05:38:09 10° NNE
PSLV R/B 4.2 05:32:23 10° N 05:36:20 45° WNW 05:37:00 41° W
Cosmos 2228 3.2 05:32:48 10° N 05:37:14 77° E 05:41:36 10° SSE
Cosmos 292 Rocket 3.9 05:37:34 10° NNW 05:42:16 48° WSW 05:46:55 10° S
Cosmos 1174 4.2 05:41:27 10° NNW 05:44:22 45° NE 05:47:26 10° SE
CZ-4B DEB 4.1 05:40:03 10° N 05:45:30 68° WNW 05:50:57 10° SSW
Lacrosse 5 2.1 05:45:28 29° W 05:47:52 57° NNW 05:52:52 10° NE
Cosmos 2098 Rocket 3.0 05:45:15 10° N 05:49:04 84° E 05:53:56 10° S
Cosmos 1603 4.1 05:47:00 10° NNW 05:52:45 68° ENE 05:58:24 10° SE
Cosmos 1000 Rocket 4.5 05:50:44 10° SSW 05:57:03 72° W 06:03:23 10° N
DELTA 2 R/B (1) 4.4 05:54:22 19° SW 05:57:50 39° S 06:02:59 10° ESE
Cosmos 2016 Rocket 3.9 05:51:46 10° NNW 05:58:07 75° W 06:04:22 10° S
Meteor 1-31 Rocket 3.7 05:54:40 10° NNE 05:58:29 50° E 06:02:18 10° S
USA 129 2.3 05:57:26 10° SSE 05:59:13 47° ENE 06:00:53 10° N
PAYLOAD B 4.5 05:54:15 10° N 05:59:29 47° WNW 06:04:28 11° SW
Cosmos 2082 4.3 05:57:34 22° WSW 06:00:31 37° NW 06:05:43 10° NNE
Cosmos 1898 Rocket 3.5 05:55:36 10° SSW 06:00:54 74° WNW 06:06:13 10° NNE
Cosmos 2058 Rocket 3.4 05:58:46 10° NNW 06:02:51 41° W 06:06:57 10° SSW
Cosmos 2173 Rocket 4.1 05:57:39 10° NNW 06:03:31 50° W 06:09:23 10° SSW
Lacrosse 5 rocket 3.4 06:00:53 12° NW 06:03:52 21° N 06:07:16 10° NE
Okean-O 2.5 05:59:39 10° NNE 06:04:07 80° WNW 06:08:33 10° SSW
Meteor 1-15 Rocket 4.4 05:59:26 10° NNW 06:04:46 48° W 06:10:07 10° SSW
CZ-4B R/B 3.8 06:01:28 10° N 06:05:28 35° WNW 06:08:37 15° SW
SL-08 R/B 4.4 06:00:20 10° N 06:06:34 77° W 06:12:52 10° S
ADEOS Rocket 3.4 06:03:06 10° N 06:10:13 60° WNW 06:16:37 10° SSW
Cosmos 858 Rocket 4.5 06:05:09 10° SSW 06:10:23 68° WNW 06:15:41 10° NNE
Cosmos 1459 Rocket 4.3 06:04:26 10° NNW 06:10:26 44° W 06:16:21 10° SSW
Cosmos 1937 Rocket 3.5 06:07:56 10° SSW 06:13:10 79° WNW 06:18:29 10° NNE
Cosmos 1666 3.9 06:10:20 10° NW 06:13:20 22° W 06:16:19 10° SW
CENTAUR R/B 3.1 06:06:14 10° NW 06:13:57 67° WSW 06:22:10 10° SSE
Cosmos 1515 3.7 06:11:09 10° S 06:14:58 83° E 06:18:49 10° N
COSMO-SKYMED 1 3.3 06:13:28 10° SSE 06:17:43 58° ENE 06:22:00 10° N
Cosmos 2123 Rocket 4.0 06:12:50 10° S 06:19:01 85° W 06:25:15 10° N
NOSS 2-2 (D) 4.1 06:15:06 10° SSW 06:19:10 61° ESE 06:23:58 10° NE
USA 116 4.5 06:14:58 10° S 06:19:48 45° W 06:24:11 10° NNW
Cosmos 1025 Rocket 4.5 06:19:09 16° W 06:20:44 19° WNW 06:23:48 10° NNW
NOAA 6 4.5 06:15:33 10° NNE 06:20:45 68° ESE 06:25:54 10° S
Feng Yun 1-1 Rocket 4.3 06:16:00 10° N 06:21:37 70° WNW 06:27:21 10° SSW
Okean 2 4.4 06:19:07 11° SW 06:22:26 27° WNW 06:26:00 10° NNW
CZ-4B R/B 4.0 06:20:33 10° N 06:25:13 31° WNW 06:29:58 10° WSW
ADEOS II 2.3 06:21:41 10° N 06:26:48 52° WNW 06:31:52 10° SW
BREEZE-M DEB (TANK) 2.2 06:25:08 13° WNW 06:27:18 43° SW 06:30:37 10° SE
Cosmos 2237 Rocket4.206:30:27WSW06:30:27WSW06:23:57WNW
Cosmos 1340 3.5 06:24:32 10° S 06:28:14 55° E 06:31:58 10° NNE
ATLAS 5 CENTAUR R/B 3.9 06:27:33 10° W 06:30:27 14° WSW 06:33:36 10° SW
OPS 6432 4.2 06:28:10 10° SW 06:31:26 65° NW 06:34:29 10° NNE
NOSS 2-2 (C) 3.7 06:30:20 10° SW 06:34:30 85° SE 06:39:28 10° NE
Okean O Rocket 3.3 06:32:07 10° NNW 06:34:39 15° WNW 06:37:09 10° W
Cosmos 1626 Rocket 3.7 06:31:11 10° SSW 06:35:28 52° WNW 06:39:45 10° N
NOSS 2-2 (E) 3.7 06:31:52 10° SW 06:36:05 86° NW 06:41:12 10° NE
Meteor PRIRODA 4.3 06:33:12 10° N 06:36:39 36° WNW 06:40:03 10° SW
Cosmos 2227 4.2 06:31:57 10° SSW 06:37:43 81° WNW 06:43:31 10° NNE
Intercosmos 25 Rocket 3.4 06:39:56 10° NNW 06:43:23 68° W 06:48:18 10° S
CZ-4 R/B 4.4 06:40:35 10° NE 06:43:43 22° E 06:46:52 10° SE
Iridium 4 Rocket 3.8 06:42:29 10° S 06:47:17 66° E 06:51:43 10° N
SL-16 R/B 3.5 06:45:01 10° WNW 06:48:44 18° W 06:52:27 10° SW
SJ-6F 4.4 06:45:20 10° N 06:49:30 70° WNW 06:53:39 10° SSW
Radarsat Rocket 4.2 06:42:40 10° NNE 06:49:35 89° WNW 06:55:43 10° SSW
SL-24 R/B 3.9 06:47:22 10° N 06:51:48 72° WNW 06:55:41 10° SSW
BREEZE-M DEB (TANK) 3.9 06:43:58 10° WNW 06:54:42 41° SW 06:58:15 10° SSE
